Wind_Speed
26 26 26 25 26 25 26 25 25 25 24 23 22 22 22 21 20 20 19 19 19 19 18 18 18 17 17 16 17 17 17 16 16 16 16 16 16 17 18 18 19 19 20
27 26 26 26 26 26 26 27 26 25 24 23 23 23 23 23 22 21 21 21 21 21 20 20 20 19 18 18 18 18 18 18 18 18 18 19 19 20 20 21 21 22 22
27 27 27 26 26 26 27 27 26 25 24 24 23 22 22 22 22 22 22 22 22 22 22 22 21 21 21 20 20 20 20 21 21 21 22 21 22 22 23 23 24 24 25
28 28 28 28 27 27 26 26 26 25 25 25 24 23 23 23 23 23 23 23 23 24 23 23 23 23 23 22 23 23 23 23 24 23 24 24 24 24 25 25 26 27 27
28 28 29 29 27 26 26 26 26 24 24 24 25 24 24 24 24 23 23 24 24 24 24 24 24 25 24 24 25 26 26 25 25 26 26 27 27 27 28 28 29 29 30
26 26 28 28 27 25 26 26 26 25 24 25 25 24 24 24 25 24 25 25 25 26 26 26 26 26 27 27 27 27 27 27 27 28 29 29 30 30 30 31 32 32 33
22 22 24 25 26 26 25 25 25 25 25 25 26 25 25 25 26 26 26 26 26 27 27 27 27 28 29 29 29 29 30 30 30 31 31 31 32 32 33 34 34 34 35
21 21 22 24 25 25 25 25 26 27 27 26 27 27 27 28 28 27 28 28 29 29 29 30 30 31 32 32 32 32 33 33 34 33 33 34 34 35 35 35 35 36 37
23 23 23 23 24 25 25 24 26 27 27 28 27 28 29 30 30 29 29 30 30 31 32 32 33 33 33 34 34 34 34 34 34 34 35 36 36 36 37 37 38 39 40
23 23 23 23 23 23 23 24 25 26 27 27 27 28 28 29 30 30 31 31 32 33 33 33 34 35 35 35 35 36 36 36 36 37 37 37 38 38 39 40 41 42 43
23 23 23 22 22 23 24 24 24 25 26 27 26 27 27 27 29 30 30 30 31 32 33 33 33 35 35 36 36 37 37 38 38 38 38 39 39 40 41 42 43 44 45
23 23 23 22 21 22 23 23 24 24 24 26 26 26 27 27 28 29 30 31 31 31 32 33 34 35 36 36 37 37 37 37 37 37 38 39 40 41 43 44 45 46 46
24 23 23 23 22 22 22 22 22 22 23 24 26 26 27 28 29 30 30 30 31 32 32 32 34 35 36 36 37 37 37 37 38 39 40 41 42 43 44 45 46 47 48
25 24 24 24 23 23 23 22 21 22 23 24 25 26 26 27 27 30 30 31 31 31 32 33 34 35 35 36 37 37 38 38 39 40 42 43 43 44 45 46 47 48 49
25 25 25 24 24 23 23 23 23 23 23 24 25 25 27 27 28 28 29 30 30 30 31 32 33 34 36 37 38 38 39 39 40 41 42 43 44 45 45 46 47 48 48
26 26 26 25 24 24 24 25 25 25 25 25 26 26 27 27 27 28 29 29 31 32 32 33 34 35 36 38 38 39 39 40 41 42 42 43 44 44 45 45 44 44 44
27 27 26 26 25 26 26 25 25 25 26 26 26 26 27 27 28 29 30 31 32 33 33 34 35 35 36 37 38 38 39 40 40 41 41 41 41 41 41 40 40 39 39
24 25 25 25 26 26 27 27 26 26 27 27 27 28 29 29 30 30 31 32 33 33 34 35 35 36 36 36 37 37 38 38 38 39 38 38 38 37 37 36 36 36 35
23 23 24 25 25 25 25 26 26 27 27 27 28 29 29 30 30 31 32 32 33 33 34 35 36 36 36 36 36 36 36 36 36 36 35 35 34 34 34 33 33 32 32
23 23 24 24 25 25 25 25 26 27 27 27 28 29 29 30 30 31 31 32 33 33 34 34 34 34 34 34 34 34 34 34 33 33 33 32 32 31 31 30 30 29 29
22 22 22 22 23 24 24 24 24 25 25 26 27 28 29 29 30 31 31 31 31 31 31 31 31 32 32 31 31 32 31 31 31 31 31 30 29 28 28 27 26 26 26
20 21 21 22 22 23 23 24 24 24 25 26 27 28 28 29 29 29 29 29 29 29 29 29 30 30 30 29 29 29 29 29 28 28 27 27 26 25 24 24 23 23 23
18 19 20 20 20 21 22 23 23 24 25 25 26 25 26 26 26 25 26 26 27 27 27 27 27 27 27 27 27 27 26 26 25 25 24 23 23 22 21 21 21 21 21
16 17 18 18 19 20 21 22 22 22 22 22 22 23 23 23 23 24 24 25 25 25 24 24 24 24 24 24 24 24 23 23 22 21 21 20 20 20 20 20 19 19 18
14 15 15 16 17 17 19 19 19 19 19 19 19 19 20 21 21 22 22 22 22 22 21 21 21 21 22 21 21 20 20 19 19 18 18 18 18 18 17 17 17 16 15
13 13 13 13 14 14 14 14 15 15 15 16 17 17 18 18 19 19 19 19 19 19 19 19 19 19 18 18 17 17 17 16 16 16 16 16 15 15 15 15 14 14 13
Wind_Direction
261 259 259 260 263 265 264 264 265 263 260 260 258 257 257 254 253 254 251 249 250 252 255 257 259 261 264 268 272 274 277 279 281 282 283 284 283 283 284 285 285 285 284
263 259 260 262 263 265 265 262 263 263 261 259 258 257 257 253 253 253 252 250 250 251 254 256 259 260 262 265 269 272 274 275 277 280 281 282 281 282 282 284 284 284 284
262 260 260 264 264 264 264 263 261 261 263 263 259 254 253 251 251 251 251 250 251 252 253 255 257 260 262 265 268 271 271 273 275 277 278 280 280 281 281 282 283 282 282
260 259 260 263 263 262 262 262 260 261 263 262 256 254 253 250 250 251 251 249 251 252 254 255 258 260 263 266 269 269 271 274 275 276 277 278 279 280 279 279 280 280 280
259 259 259 260 259 258 258 261 260 258 258 257 253 252 252 249 249 249 249 249 251 252 254 254 258 260 263 266 269 270 271 274 275 277 277 277 278 279 279 279 279 279 279
261 259 257 255 255 255 255 258 258 256 254 254 251 251 249 246 245 245 245 246 249 251 253 254 257 261 264 266 268 269 271 272 275 278 279 279 278 279 280 281 280 280 280
266 259 254 253 253 254 255 256 258 253 252 251 249 249 247 245 244 243 245 246 248 251 252 254 256 260 263 266 268 269 271 272 275 277 279 280 279 279 281 281 280 280 280
272 267 260 256 257 256 255 254 254 252 251 250 249 248 246 245 244 243 247 248 249 252 254 255 258 260 263 266 268 270 272 274 275 277 279 280 280 280 280 281 280 280 280
273 269 265 262 260 260 258 255 253 250 251 250 249 248 246 248 246 246 247 249 251 254 257 258 259 262 264 266 268 271 274 276 276 278 279 280 280 280 281 281 280 280 281
266 266 263 261 261 260 259 256 250 249 251 249 249 247 248 248 249 251 253 253 255 257 258 259 261 264 265 267 269 273 274 276 277 278 279 279 279 280 280 280 280 281 281
263 262 261 261 260 260 260 257 252 251 250 246 246 247 250 250 252 254 255 257 259 260 261 265 267 268 270 271 273 274 276 277 278 279 279 279 280 281 281 282 282 283 283
262 261 262 261 262 262 261 258 256 254 252 246 244 247 249 251 253 255 257 259 262 263 265 267 270 272 272 273 275 277 278 279 279 279 279 280 281 282 283 283 284 284 284
262 262 260 261 263 263 261 261 259 258 255 252 249 249 250 252 255 258 260 263 266 266 267 269 271 271 272 274 276 278 278 278 279 280 281 282 283 283 284 284 285 285 285
259 259 260 261 262 261 259 259 259 256 256 255 254 252 253 255 256 259 261 264 267 268 269 271 272 273 274 276 277 278 278 279 279 281 282 284 284 285 285 285 285 286 286
255 256 258 260 260 260 259 257 257 256 256 254 255 255 256 258 261 264 265 266 268 271 273 273 274 277 277 277 277 278 279 280 281 282 284 285 286 287 287 287 288 288 289
253 254 256 259 259 258 257 257 256 255 255 256 257 258 260 260 263 267 270 270 270 272 272 273 275 276 276 277 278 280 281 282 283 284 285 286 287 287 288 290 290 291 291
255 254 254 255 256 255 256 256 257 256 257 259 259 260 261 261 264 267 269 271 272 274 274 275 276 277 278 279 280 281 282 283 285 286 287 287 288 290 291 292 292 293 294
259 257 256 255 255 257 258 258 259 259 260 260 261 262 262 263 264 266 269 272 274 275 275 276 277 279 280 281 282 282 284 285 286 287 289 290 291 292 293 294 295 296 297
260 260 258 256 255 257 258 258 258 259 260 260 260 261 262 264 266 268 269 271 273 274 276 277 279 280 281 282 283 284 285 287 288 289 291 292 293 294 294 295 297 298 299
258 258 257 256 257 258 258 258 259 260 261 262 263 264 266 267 268 270 271 273 274 276 277 279 280 281 282 283 284 285 287 289 290 290 291 292 294 295 296 297 298 299 300
258 258 256 256 257 257 258 259 260 261 263 264 265 267 268 269 271 272 273 275 277 278 280 281 282 282 282 284 285 286 288 289 290 290 291 292 294 295 296 298 298 300 301
260 260 260 258 258 259 260 260 261 262 263 265 268 269 271 273 274 275 276 276 278 279 281 282 282 282 284 285 286 288 289 289 290 290 291 293 294 296 297 298 299 300 302
261 262 261 260 260 261 263 265 266 267 268 269 271 273 274 276 276 277 278 280 281 282 282 283 284 284 285 286 288 289 289 289 290 291 292 293 295 296 296 298 300 302 304
259 259 260 262 264 266 268 269 272 272 272 272 272 274 276 277 278 279 281 281 282 283 284 284 285 286 287 288 288 288 289 290 291 292 293 294 296 296 297 300 301 303 305
260 263 266 269 271 272 273 273 273 272 273 274 275 277 278 280 281 282 282 283 283 284 285 286 287 288 288 288 288 289 290 291 291 292 294 297 298 299 300 301 302 304 306
269 271 273 275 276 277 277 277 276 276 277 278 279 280 282 283 285 285 286 286 286 287 288 289 290 291 291 290 291 293 292 292 292 293 296 298 299 300 301 302 304 307 311
Height
5856 5857 5858 5858 5859 5859 5860 5862 5863 5863 5865 5866 5867 5868 5869 5870 5872 5873 5873 5874 5875 5876 5877 5878 5879 5879 5880 5880 5881 5881 5881 5881 5881 5880 5880 5880 5880 5880 5880 5879 5879 5879 5878
5850 5852 5853 5853 5854 5854 5855 5856 5857 5858 5859 5860 5862 5863 5864 5865 5867 5868 5869 5870 5871 5872 5873 5874 5875 5875 5876 5876 5876 5877 5877 5877 5877 5876 5876 5876 5876 5875 5875 5875 5874 5874 5873
5843 5845 5846 5847 5848 5848 5849 5850 5851 5852 5854 5855 5856 5858 5859 5860 5862 5863 5864 5865 5866 5867 5868 5869 5870 5870 5871 5872 5872 5872 5872 5872 5872 5872 5871 5871 5870 5870 5870 5869 5869 5868 5868
5836 5838 5840 5841 5842 5842 5843 5844 5846 5847 5848 5849 5850 5852 5853 5855 5856 5858 5859 5859 5861 5862 5863 5864 5865 5865 5866 5867 5867 5867 5867 5866 5866 5866 5866 5865 5865 5864 5864 5863 5863 5862 5862
5830 5831 5833 5835 5836 5836 5837 5838 5840 5841 5842 5843 5845 5846 5848 5849 5851 5852 5853 5855 5856 5857 5858 5859 5859 5860 5861 5861 5861 5861 5861 5860 5860 5860 5859 5859 5858 5858 5857 5856 5856 5855 5854
5824 5825 5826 5828 5829 5831 5831 5832 5833 5834 5836 5837 5839 5840 5842 5843 5845 5846 5848 5849 5851 5852 5853 5853 5854 5854 5855 5855 5855 5855 5855 5854 5854 5854 5853 5852 5852 5851 5850 5849 5848 5847 5846
5818 5819 5820 5822 5823 5825 5825 5826 5827 5828 5829 5831 5833 5834 5836 5837 5839 5841 5842 5843 5845 5846 5847 5847 5848 5848 5848 5849 5849 5849 5848 5848 5847 5847 5846 5845 5844 5843 5842 5841 5840 5839 5838
5813 5814 5814 5816 5817 5818 5819 5820 5821 5822 5823 5825 5827 5828 5829 5832 5833 5835 5836 5837 5838 5839 5840 5841 5841 5842 5842 5842 5842 5841 5841 5840 5840 5839 5838 5837 5836 5835 5834 5832 5831 5830 5828
5807 5808 5809 5810 5811 5812 5813 5814 5814 5816 5817 5818 5820 5822 5824 5825 5827 5828 5829 5831 5832 5833 5833 5834 5834 5834 5834 5834 5834 5833 5833 5832 5831 5830 5830 5828 5827 5826 5825 5823 5822 5820 5818
5801 5802 5803 5803 5804 5806 5807 5807 5808 5809 5811 5812 5814 5816 5818 5819 5821 5822 5823 5824 5825 5825 5826 5826 5826 5826 5826 5826 5825 5825 5824 5823 5822 5821 5820 5819 5818 5817 5815 5813 5812 5810 5808
5795 5796 5797 5797 5798 5800 5801 5802 5802 5804 5804 5806 5808 5809 5811 5813 5814 5815 5816 5817 5817 5817 5818 5818 5818 5818 5818 5818 5817 5816 5815 5814 5813 5812 5811 5809 5808 5806 5805 5803 5801 5798 5796
5789 5790 5790 5791 5792 5793 5794 5796 5797 5798 5799 5801 5802 5804 5805 5806 5807 5809 5809 5810 5810 5810 5810 5810 5810 5810 5810 5809 5808 5807 5806 5805 5804 5802 5801 5799 5797 5796 5794 5791 5789 5787 5784
5783 5783 5784 5785 5786 5787 5788 5789 5791 5792 5793 5795 5796 5797 5799 5800 5801 5801 5802 5802 5802 5802 5802 5802 5802 5801 5801 5800 5799 5798 5797 5796 5794 5793 5791 5789 5787 5784 5782 5780 5777 5774 5772
5776 5777 5778 5779 5780 5781 5782 5784 5785 5786 5787 5788 5790 5791 5792 5793 5793 5794 5795 5795 5794 5794 5794 5794 5793 5792 5792 5791 5790 5789 5787 5786 5785 5783 5781 5778 5776 5773 5771 5768 5765 5762 5759
5769 5770 5772 5773 5774 5775 5777 5778 5778 5780 5781 5782 5783 5784 5785 5786 5786 5787 5787 5787 5787 5787 5786 5785 5785 5784 5783 5782 5780 5779 5777 5776 5774 5772 5769 5767 5764 5762 5759 5756 5753 5749 5746
5762 5763 5765 5766 5767 5769 5770 5771 5772 5773 5774 5775 5776 5777 5778 5778 5779 5779 5779 5779 5779 5779 5778 5777 5776 5775 5774 5772 5771 5769 5767 5765 5763 5761 5759 5756 5753 5750 5747 5744 5741 5737 5734
5755 5756 5757 5759 5760 5762 5763 5764 5765 5766 5767 5768 5769 5770 5770 5771 5771 5771 5771 5771 5771 5770 5770 5768 5767 5766 5764 5763 5761 5759 5757 5755 5753 5750 5748 5745 5742 5740 5737 5734 5730 5727 5724
5748 5749 5750 5752 5753 5754 5756 5757 5758 5759 5760 5761 5762 5762 5763 5763 5763 5764 5763 5763 5762 5762 5761 5760 5758 5756 5755 5753 5751 5749 5747 5745 5743 5741 5738 5735 5733 5730 5727 5724 5721 5718 5714
5742 5743 5744 5745 5746 5747 5749 5750 5751 5752 5753 5754 5754 5755 5755 5756 5755 5755 5755 5755 5754 5753 5752 5751 5749 5747 5746 5744 5742 5740 5738 5736 5734 5731 5729 5726 5724 5721 5718 5715 5712 5709 5706
5736 5737 5738 5739 5740 5741 5742 5743 5744 5745 5746 5746 5747 5747 5747 5748 5747 5747 5747 5746 5745 5744 5743 5742 5740 5738 5737 5735 5733 5731 5729 5727 5725 5723 5720 5718 5716 5713 5710 5708 5705 5702 5699
5730 5731 5731 5733 5734 5735 5735 5736 5737 5738 5738 5739 5740 5740 5740 5740 5739 5739 5738 5738 5737 5735 5734 5733 5731 5730 5728 5727 5725 5723 5721 5719 5717 5715 5713 5710 5708 5706 5703 5700 5698 5695 5692
5724 5725 5726 5727 5727 5728 5729 5730 5731 5731 5732 5732 5733 5732 5732 5732 5731 5731 5730 5729 5728 5727 5726 5725 5723 5722 5720 5719 5717 5715 5713 5712 5710 5708 5706 5703 5701 5699 5696 5694 5692 5689 5686
5720 5720 5721 5721 5722 5722 5723 5723 5724 5725 5725 5725 5725 5725 5725 5724 5724 5723 5723 5722 5721 5719 5718 5717 5716 5714 5713 5711 5710 5708 5706 5704 5702 5700 5699 5697 5695 5693 5691 5688 5686 5684 5681
5715 5716 5716 5717 5717 5717 5717 5718 5718 5718 5719 5719 5719 5719 5718 5718 5717 5717 5716 5715 5714 5712 5711 5710 5709 5707 5706 5704 5702 5701 5699 5698 5696 5695 5693 5691 5689 5688 5685 5683 5681 5679 5677
5711 5712 5712 5712 5712 5713 5713 5713 5713 5713 5713 5713 5713 5713 5712 5712 5711 5710 5709 5708 5707 5706 5705 5703 5702 5700 5699 5697 5696 5695 5693 5692 5691 5690 5688 5686 5684 5683 5681 5679 5677 5674 5672
5708 5709 5709 5709 5709 5709 5709 5708 5708 5708 5708 5708 5708 5708 5707 5706 5705 5704 5704 5703 5701 5700 5699 5698 5696 5695 5693 5692 5691 5689 5688 5687 5686 5685 5683 5682 5680 5678 5677 5675 5673 5671 5669